Location: Edoum�
(0.9447°N, 10.6482°E)
Time: 13:19:57
(UTC+00:00)

ISO - Pass Details

Date: 07 June 2020
Orbit: 611 x 69999 km, 0.1° (Epoch: 06 July)

Event Time Altitude Azimuth Distance (km) Brightness Sun altitude
Exits shadow 04:28:31 12° 266° (W) 1,998 4.1 -10.6°
Maximum altitude 04:31:53 78° 180° (S) 625 2.0 -9.9°
Drops below altitude 10° 04:36:19 10° 93° (E) 2,589 6.4 -8.8°
Sets 04:40:06 0° 92° (E) 4,601 7.9 -8.0°
